| time (UTC) | temp F | wind direction | speed MPH | gust MPH | rain 1hr in | rain 24hr in | rain mn in | humidity % | barometer mb |
| 20260504050517 | 54 | 0.0 | 3.0 | 0.00 | 0.00 | 0.00 | 64 | 1004.8 | |
| 20260504045517 | 55 | 90 | 1.0 | 4.0 | 0.00 | 0.00 | 0.00 | 62 | 1004.8 |
| 20260504044517 | 55 | 45 | 5.0 | 7.0 | 0.00 | 0.00 | 0.00 | 61 | 1004.6 |
| 20260504043517 | 53 | 338 | 2.0 | 4.0 | 0.00 | 0.00 | 0.00 | 62 | 1004.4 |
| 20260504042517 | 54 | 315 | 2.0 | 6.0 | 0.00 | 0.00 | 0.00 | 61 | 1004.5 |
| 20260504041517 | 56 | 270 | 4.0 | 6.0 | 0.00 | 0.00 | 0.00 | 56 | 1004.3 |
| 20260504040517 | 56 | 248 | 4.0 | 5.0 | 0.00 | 0.00 | 0.00 | 55 | 1004.1 |
| 20260504035517 | 56 | 248 | 4.0 | 4.0 | 0.00 | 0.00 | 0.00 | 57 | 1004.1 |
| 20260504034517 | 57 | 248 | 5.0 | 7.0 | 0.00 | 0.00 | 0.00 | 54 | 1004.2 |
| 20260504033517 | 58 | 248 | 6.0 | 7.0 | 0.00 | 0.00 | 0.00 | 52 | 1004.2 |
| 20260504032537 | 58 | 248 | 6.0 | 7.0 | 0.00 | 0.00 | 0.00 | 53 | 1004.2 |
| 20260504031537 | 58 | 248 | 5.0 | 6.0 | 0.00 | 0.00 | 0.00 | 55 | 1004.3 |
| 20260504030517 | 58 | 248 | 6.0 | 7.0 | 0.00 | 0.00 | 0.00 | 56 | 1004.4 |
| 20260504025517 | 57 | 225 | 5.0 | 6.0 | 0.00 | 0.00 | 0.00 | 60 | 1004.4 |
| 20260504024517 | 57 | 225 | 6.0 | 7.0 | 0.00 | 0.00 | 0.00 | 59 | 1004.2 |
| 20260504023517 | 57 | 225 | 5.0 | 6.0 | 0.00 | 0.00 | 0.00 | 60 | 1004.2 |
| 20260504022537 | 56 | 225 | 5.0 | 6.0 | 0.00 | 0.00 | 0.00 | 62 | 1004.2 |
| 20260504021517 | 56 | 225 | 5.0 | 7.0 | 0.00 | 0.00 | 0.00 | 62 | 1004.0 |
| 20260504020518 | 56 | 225 | 4.0 | 5.0 | 0.00 | 0.00 | 0.00 | 64 | 1003.9 |
| 20260504015522 | 57 | 203 | 3.0 | 5.0 | 0.00 | 0.00 | 0.00 | 62 | 1004.0 |
| 20260504014517 | 58 | 225 | 4.0 | 5.0 | 0.00 | 0.00 | 0.00 | 59 | 1003.9 |
| 20260504013517 | 59 | 225 | 5.0 | 6.0 | 0.00 | 0.00 | 0.00 | 57 | 1003.7 |
| 20260504012517 | 60 | 225 | 4.0 | 6.0 | 0.00 | 0.00 | 0.00 | 55 | 1003.7 |
| 20260504011517 | 61 | 225 | 5.0 | 6.0 | 0.00 | 0.00 | 0.00 | 52 | 1003.8 |
| 20260504010517 | 63 | 248 | 5.0 | 7.0 | 0.00 | 0.00 | 0.00 | 48 | 1003.7 |
| 20260504005517 | 64 | 248 | 6.0 | 9.0 | 0.00 | 0.00 | 0.00 | 46 | 1003.6 |
| 20260504004517 | 65 | 248 | 8.0 | 10.0 | 0.00 | 0.00 | 0.00 | 44 | 1003.5 |
| 20260504003518 | 65 | 248 | 9.0 | 12.0 | 0.00 | 0.00 | 0.00 | 43 | 1003.5 |
| 20260504002517 | 66 | 248 | 10.0 | 13.0 | 0.00 | 0.00 | 0.00 | 41 | 1003.5 |
| 20260504001517 | 66 | 248 | 10.0 | 12.0 | 0.00 | 0.00 | 0.00 | 43 | 1003.5 |
| 20260504000517 | 67 | 248 | 8.0 | 10.0 | 0.00 | 0.00 | 0.00 | 44 | 1003.4 |
| 20260503235517 | 67 | 248 | 8.0 | 9.0 | 0.00 | 0.00 | 0.00 | 45 | 1003.3 |
| 20260503234537 | 68 | 248 | 11.0 | 15.0 | 0.00 | 0.00 | 0.00 | 43 | 1003.2 |
| 20260503233537 | 68 | 248 | 10.0 | 14.0 | 0.00 | 0.00 | 0.00 | 42 | 1003.3 |
| 20260503232517 | 68 | 248 | 12.0 | 17.0 | 0.00 | 0.00 | 0.00 | 41 | 1003.2 |
| 20260503231538 | 68 | 248 | 12.0 | 16.0 | 0.00 | 0.00 | 0.00 | 41 | 1003.3 |
| 20260503230517 | 68 | 248 | 13.0 | 17.0 | 0.00 | 0.00 | 0.00 | 42 | 1003.3 |
| 20260503225517 | 68 | 248 | 13.0 | 17.0 | 0.00 | 0.00 | 0.00 | 43 | 1003.2 |
| 20260503224517 | 69 | 248 | 12.0 | 18.0 | 0.00 | 0.00 | 0.00 | 42 | 1003.3 |
| 20260503223516 | 69 | 248 | 11.0 | 15.0 | 0.00 | 0.00 | 0.00 | 44 | 1003.4 |
| 20260503222516 | 69 | 225 | 13.0 | 16.0 | 0.00 | 0.00 | 0.00 | 44 | 1003.3 |
| 20260503221516 | 69 | 225 | 13.0 | 17.0 | 0.00 | 0.00 | 0.00 | 44 | 1003.3 |
| 20260503220516 | 68 | 225 | 13.0 | 18.0 | 0.00 | 0.00 | 0.00 | 45 | 1003.2 |
| 20260503215516 | 70 | 225 | 8.0 | 16.0 | 0.00 | 0.00 | 0.00 | 44 | 1003.5 |
| 20260503214520 | 69 | 225 | 10.0 | 16.0 | 0.00 | 0.00 | 0.00 | 45 | 1003.6 |
| 20260503213516 | 69 | 225 | 8.0 | 14.0 | 0.00 | 0.00 | 0.00 | 46 | 1003.8 |
| 20260503212539 | 70 | 225 | 10.0 | 16.0 | 0.00 | 0.00 | 0.00 | 46 | 1003.9 |
| 20260503211516 | 69 | 203 | 5.0 | 12.0 | 0.00 | 0.00 | 0.00 | 46 | 1004.0 |
| 20260503210536 | 69 | 225 | 5.0 | 11.0 | 0.00 | 0.00 | 0.00 | 46 | 1004.2 |
| 20260503205516 | 69 | 225 | 9.0 | 17.0 | 0.00 | 0.00 | 0.00 | 46 | 1004.2 |
| 20260503204516 | 69 | 203 | 8.0 | 14.0 | 0.00 | 0.00 | 0.00 | 46 | 1004.3 |
| 20260503203516 | 69 | 203 | 6.0 | 15.0 | 0.00 | 0.00 | 0.00 | 45 | 1004.4 |
| 20260503202517 | 69 | 225 | 5.0 | 15.0 | 0.00 | 0.00 | 0.00 | 46 | 1004.6 |
| 20260503201517 | 69 | 203 | 6.0 | 12.0 | 0.00 | 0.00 | 0.00 | 46 | 1004.7 |
| 20260503200516 | 69 | 203 | 5.0 | 13.0 | 0.00 | 0.00 | 0.00 | 45 | 1005.0 |
| 20260503195516 | 69 | 225 | 5.0 | 14.0 | 0.00 | 0.00 | 0.00 | 46 | 1005.1 |
| 20260503194536 | 69 | 225 | 5.0 | 12.0 | 0.00 | 0.00 | 0.00 | 46 | 1005.2 |
| 20260503193516 | 69 | 203 | 6.0 | 13.0 | 0.00 | 0.00 | 0.00 | 46 | 1005.2 |
| 20260503192516 | 69 | 225 | 4.0 | 10.0 | 0.00 | 0.00 | 0.00 | 46 | 1005.3 |
| 20260503191516 | 68 | 225 | 6.0 | 17.0 | 0.00 | 0.00 | 0.00 | 44 | 1005.4 |
| 20260503190536 | 68 | 203 | 8.0 | 16.0 | 0.00 | 0.00 | 0.00 | 47 | 1005.5 |
| 20260503185516 | 68 | 225 | 6.0 | 16.0 | 0.00 | 0.00 | 0.00 | 47 | 1005.7 |
| 20260503184517 | 68 | 203 | 5.0 | 14.0 | 0.00 | 0.00 | 0.00 | 48 | 1005.8 |
| 20260503183516 | 67 | 203 | 7.0 | 13.0 | 0.00 | 0.00 | 0.00 | 50 | 1005.9 |
| 20260503182516 | 67 | 203 | 10.0 | 18.0 | 0.00 | 0.00 | 0.00 | 50 | 1006.0 |
| 20260503181516 | 67 | 203 | 6.0 | 14.0 | 0.00 | 0.00 | 0.00 | 51 | 1006.3 |
| 20260503180516 | 67 | 203 | 7.0 | 14.0 | 0.00 | 0.00 | 0.00 | 53 | 1006.3 |
| 20260503175516 | 66 | 225 | 7.0 | 16.0 | 0.00 | 0.00 | 0.00 | 50 | 1006.4 |
| 20260503174516 | 67 | 203 | 6.0 | 14.0 | 0.00 | 0.00 | 0.00 | 53 | 1006.6 |
| 20260503173516 | 66 | 225 | 5.0 | 9.0 | 0.00 | 0.00 | 0.00 | 54 | 1006.7 |
| 20260503172516 | 66 | 203 | 11.0 | 17.0 | 0.00 | 0.00 | 0.00 | 54 | 1007.0 |
| 20260503171516 | 65 | 225 | 12.0 | 19.0 | 0.00 | 0.00 | 0.00 | 54 | 1007.1 |
| 20260503170516 | 62 | 203 | 6.0 | 12.0 | 0.00 | 0.00 | 0.00 | 56 | 1007.2 |
| 20260503150516 | 56 | 203 | 6.0 | 15.0 | 0.00 | 0.00 | 0.00 | 61 | 1008.2 |
| 20260503130516 | 51 | 225 | 1.0 | 4.0 | 0.00 | 0.00 | 0.00 | 65 | 1009.7 |
| 20260503110517 | 47 | 225 | 1.0 | 4.0 | 0.00 | 0.00 | 0.00 | 75 | 1010.5 |
| 20260503081519 | 48 | 203 | 1.0 | 5.0 | 0.00 | 0.00 | 0.00 | 66 | 1011.3 |
| 20260503080518 | 48 | 203 | 1.0 | 4.0 | 0.00 | 0.00 | 0.00 | 66 | 1011.4 |
| 20260503072517 | 45 | 225 | 2.0 | 5.0 | 0.00 | 0.00 | 0.00 | 77 | 1011.7 |
| 20260503071517 | 43 | 0.0 | 2.0 | 0.00 | 0.00 | 0.00 | 82 | 1011.8 | |
| 20260503070517 | 42 | 0.0 | 1.0 | 0.00 | 0.00 | 0.00 | 84 | 1011.4 |